Weather in Chermenino

Russia / Kostroma Oblast     59°03′04″N   43°59′48″E
temp.,
°C
wind,
m/s
gust,
m/s
humid.,
%
clouds,
%
prec.,
mm/h
press.,
hPa
HPBL,
m
21 april, wed
wed2100:00+1ese41478100 0.0 1024392
03:00+1ese51467100 0.0 1022463
06:00+2ese61761100 0.0 1018725
09:00+5se71757100 0.1 10161091
12:00+2se71695100 1.3 1014859
15:00+3se71688100 1.4 1012852
18:00+3se71685100 0.1 1011919
21:00+3se61590100 0.2 1011929
22 april, thu
thu2200:00+3sse41394100 0.1 1011778
03:00+3s3797100 0.2 1012456
06:00+3ssw3893100 0.0 1013493
09:00+4ssw4989100 0.0 1015572
12:00+6ssw4885100 0.1 1016923
15:00+8ssw477297 0.4 10161183
18:00+7ssw4882100 0.2 1017610
21:00+4s399518 0.2 1019260
23 april, fri
fri2300:00+3s3119324 0.0 1019330
03:00+2sse28945 0.0 1020166
06:00+4sse4118610 0.0 1020305
09:00+9sse5106820 0.0 1020637
12:00+9sse4117599 0.0 1020635
15:00+13s486595 0.1 10191401
18:00+12sse4976100 0.4 1019683
21:00+9sse4118982 1.8 1020427
24 april, sat
sat2400:00+7se3109563 0.1 1019260
03:00+6se31092100 0.3 1018265
06:00+7se3108873 0.0 1017342
09:00+11se5106863 0.0 1016764
12:00+13se585269 0.1 10141835
15:00+13se585274 0.3 10121989
18:00+11ese59625 0.0 10111088
21:00+7ese413725 0.0 1010582
25 april, sun
sun2500:00+6e4128218 0.0 1008366
03:00+6e41186100 0.0 1006551
06:00+6ese41187100 0.0 1005636
09:00+7ese4880100 0.1 1003885
12:00+5s3595100 1.1 1003815
15:00+3sw3897100 2.9 1005560
18:00+3sw3897100 0.4 1006577
21:00+3sw4995100 0.6 1007732